Satellite-Ground Cal/Val Site Overpasses Predictions

Prediction of Satellite NPP Overpassing Cal/Val Site: Antarctic Dome C

Ground Cal/Val Site Location: Latitude: -75.10, Longitude: 123.35; Satellite-Ground Site NADIR distance within 100 km.

Table of predicted overpasses for the next 14.0 days since TLE Epoch: 7/25/2020
Interval Starting Time Ending Time Minimum Distance Time Minimum Distance (km)
1 07/26/2020 15:07:27 07/26/2020 15:07:35 07/26/2020 15:07:31 95.80
2 07/27/2020 14:48:28 07/27/2020 14:48:57 07/27/2020 14:48:42 15.38
3 07/29/2020 07:31:18 07/29/2020 07:31:47 07/29/2020 07:31:33 3.15
4 08/01/2020 14:54:46 08/01/2020 14:55:15 08/01/2020 14:55:01 21.27
5 08/02/2020 14:36:05 08/02/2020 14:36:20 08/02/2020 14:36:13 85.67
6 08/03/2020 07:37:37 08/03/2020 07:38:05 08/03/2020 07:37:51 34.02
7 08/04/2020 07:18:53 08/04/2020 07:19:12 08/04/2020 07:19:02 76.03
8 08/06/2020 15:01:09 08/06/2020 15:01:32 08/06/2020 15:01:20 58.48
